Location: Blazny
(46.0612°N, 84.4033°W)
Time: 20:32:43
(UTC-04:00)

Envisat - Pass Details

Date: 17 September 2024
Orbit: 762 x 764 km, 98.3° (Epoch: 11 October)

Event Time Altitude Azimuth Distance (km) Brightness Sun altitude
Rises 03:52:25 0° 24° (NNE) 3,237 7.2 -32.8°
Reaches altitude 10° 03:55:07 10° 38° (NE) 2,305 6.3 -32.5°
Maximum altitude 03:59:18 25° 93° (E) 1,493 4.8 -32.0°
Enters shadow 04:00:11 24° 110° (ESE) 1,537 4.7 -31.9°
